Location: Kuffner-Sternwarte
(48.2130°N, 16.2960°E)
Time: 10:59:00
(UTC+02:00)

COROT - Visible Passes

Search period start: 15 May 2021 00:00
Search period end: 25 May 2021 00:00
Orbit: 601 x 886 km, 90.0° (Epoch: 15 May)

Date Brightness Start Highest point End Pass type
(mag) Time Alt. Az. Time Alt. Az. Time Alt. Az.
15 May 8.6 00:30:52 10° NW 00:33:59 15° WNW 00:37:07 10° W visible
15 May 6.6 22:06:19 10° NNE 22:11:54 49° E 22:15:43 20° SSE visible
15 May 7.8 23:46:19 10° NNW 23:51:11 29° WNW 23:55:29 13° SW visible
16 May 7.5 21:23:34 10° NNE 21:28:15 25° ENE 21:32:33 11° SE visible
16 May 6.8 23:02:31 10° N 23:08:10 58° W 23:12:20 19° SSW visible
17 May 8.9 00:45:55 10° WNW 00:46:32 10° WNW 00:47:08 10° WNW visible
17 May 6.3 22:19:07 10° N 22:24:55 72° E 22:29:09 19° S visible
17 May 8.3 23:59:43 10° NNW 00:03:52 21° WNW 00:08:02 10° WSW visible
18 May 7.0 21:36:06 10° NNE 21:41:24 36° E 21:45:59 13° SE visible
18 May 7.4 23:15:37 10° N 23:20:59 40° WNW 23:25:45 13° SW visible
19 May 6.4 22:32:02 10° N 22:37:51 81° W 22:42:36 16° S visible
20 May 8.7 00:13:28 10° NW 00:16:28 15° WNW 00:19:29 10° W visible
20 May 6.6 21:48:49 10° N 21:54:28 51° E 21:59:26 13° SSE visible
20 May 8.0 23:28:51 10° NNW 23:33:43 28° WNW 23:38:30 10° SW visible
21 May 7.4 21:06:02 10° NNE 21:10:50 26° E 21:15:31 10° SE visible
21 May 6.9 22:45:03 10° N 22:50:43 56° W 22:56:02 11° SSW visible
22 May 6.3 22:01:38 10° N 22:07:29 74° E 22:12:53 11° S visible
22 May 8.5 23:42:18 10° NNW 23:46:22 20° WNW 23:50:24 10° WSW visible
23 May 7.0 21:18:37 10° NNE 21:23:58 37° E 21:29:09 10° SSE visible
23 May 7.5 22:58:11 10° NNW 23:03:31 39° WNW 23:08:42 10° SW visible
24 May 6.4 22:14:35 10° N 22:20:25 78° W 22:26:01 10° S visible
